| time (UTC) | temp F | wind direction | speed knots | gust knots | rain 1hr in | rain 24hr in | rain mn in | humidity % | barometer mb |
| 20260506095630 | 33 | 287 | 13.0 | 21.7 | 0.00 | 0.43 | 0.00 | 57 | 1008.7 |
| 20260506095428 | 33 | 287 | 13.0 | 21.7 | 0.00 | 0.43 | 0.00 | 57 | 1008.7 |
| 20260506094428 | 33 | 291 | 11.3 | 21.7 | 0.00 | 0.43 | 0.00 | 57 | 1008.7 |
| 20260506093430 | 33 | 279 | 11.3 | 20.0 | 0.00 | 0.43 | 0.00 | 58 | 1008.6 |
| 20260506092610 | 33 | 286 | 13.9 | 20.0 | 0.00 | 0.44 | 0.00 | 59 | 1008.6 |
| 20260506092428 | 33 | 286 | 13.9 | 20.0 | 0.00 | 0.44 | 0.00 | 59 | 1008.6 |
| 20260506091804 | 33 | 284 | 12.2 | 20.0 | 0.00 | 0.44 | 0.00 | 59 | 1008.7 |
| 20260506091428 | 33 | 284 | 12.2 | 20.0 | 0.00 | 0.44 | 0.00 | 59 | 1008.7 |
| 20260506090720 | 33 | 287 | 12.2 | 19.1 | 0.00 | 0.45 | 0.00 | 59 | 1008.7 |
| 20260506090428 | 33 | 287 | 12.2 | 19.1 | 0.00 | 0.45 | 0.00 | 59 | 1008.7 |
| 20260506085428 | 33 | 290 | 10.4 | 20.0 | 0.00 | 0.45 | 0.00 | 60 | 1008.6 |
| 20260506084709 | 33 | 287 | 7.8 | 14.8 | 0.00 | 0.45 | 0.00 | 60 | 1008.7 |
| 20260506084428 | 33 | 287 | 7.8 | 14.8 | 0.00 | 0.45 | 0.00 | 60 | 1008.7 |
| 20260506083428 | 33 | 297 | 9.6 | 17.4 | 0.00 | 0.45 | 0.00 | 59 | 1008.8 |
| 20260506082428 | 33 | 290 | 9.6 | 14.8 | 0.00 | 0.46 | 0.00 | 58 | 1008.8 |
| 20260506082031 | 33 | 291 | 9.6 | 17.4 | 0.00 | 0.46 | 0.00 | 56 | 1008.9 |
| 20260506081428 | 33 | 291 | 9.6 | 17.4 | 0.00 | 0.46 | 0.00 | 56 | 1008.9 |
| 20260506080428 | 33 | 287 | 7.8 | 13.9 | 0.00 | 0.46 | 0.46 | 56 | 1008.9 |
| 20260506073428 | 33 | 292 | 11.3 | 17.4 | 0.00 | 0.48 | 0.46 | 53 | 1009.0 |
| 20260506072428 | 34 | 293 | 11.3 | 16.5 | 0.00 | 0.48 | 0.46 | 51 | 1009.1 |
| 20260506071430 | 34 | 290 | 9.6 | 17.4 | 0.00 | 0.48 | 0.46 | 52 | 1009.0 |
| 20260506070428 | 34 | 299 | 8.7 | 13.0 | 0.00 | 0.48 | 0.46 | 52 | 1009.0 |
| 20260506062428 | 34 | 302 | 7.0 | 13.0 | 0.00 | 0.48 | 0.46 | 56 | 1009.1 |
| 20260506061734 | 34 | 310 | 6.1 | 11.3 | 0.00 | 0.48 | 0.46 | 56 | 1009.2 |
| 20260506061428 | 34 | 310 | 6.1 | 11.3 | 0.00 | 0.48 | 0.46 | 56 | 1009.2 |
| 20260506060623 | 34 | 298 | 7.8 | 11.3 | 0.00 | 0.48 | 0.46 | 56 | 1009.0 |
| 20260506060429 | 34 | 298 | 7.8 | 11.3 | 0.00 | 0.48 | 0.46 | 56 | 1009.0 |
| 20260506050810 | 34 | 301 | 10.4 | 17.4 | 0.00 | 0.48 | 0.46 | 55 | 1008.6 |
| 20260506050428 | 34 | 301 | 10.4 | 17.4 | 0.00 | 0.48 | 0.46 | 55 | 1008.6 |
| 20260506044429 | 35 | 302 | 9.6 | 14.8 | 0.00 | 0.48 | 0.46 | 57 | 1008.5 |
| 20260506043718 | 35 | 305 | 8.7 | 15.6 | 0.00 | 0.48 | 0.46 | 56 | 1008.6 |
| 20260506043428 | 35 | 305 | 8.7 | 15.6 | 0.00 | 0.48 | 0.46 | 56 | 1008.6 |
| 20260506042428 | 35 | 304 | 11.3 | 16.5 | 0.00 | 0.48 | 0.46 | 57 | 1008.6 |
| 20260506041729 | 35 | 301 | 10.4 | 16.5 | 0.00 | 0.48 | 0.46 | 56 | 1008.5 |
| 20260506041428 | 35 | 301 | 10.4 | 16.5 | 0.00 | 0.48 | 0.46 | 56 | 1008.5 |
| 20260506040428 | 35 | 292 | 13.0 | 21.7 | 0.00 | 0.48 | 0.46 | 56 | 1008.3 |
| 20260506035750 | 35 | 293 | 12.2 | 25.2 | 0.00 | 0.48 | 0.46 | 56 | 1008.2 |
| 20260506035428 | 35 | 293 | 12.2 | 25.2 | 0.00 | 0.48 | 0.46 | 56 | 1008.2 |
| 20260506034741 | 35 | 291 | 13.9 | 21.7 | 0.00 | 0.48 | 0.46 | 56 | 1008.1 |
| 20260506034428 | 35 | 291 | 13.9 | 21.7 | 0.00 | 0.48 | 0.46 | 56 | 1008.1 |
| 20260506033603 | 35 | 297 | 13.0 | 18.2 | 0.00 | 0.48 | 0.46 | 56 | 1008.0 |
| 20260506033428 | 35 | 297 | 13.0 | 18.2 | 0.00 | 0.48 | 0.46 | 56 | 1008.0 |
| 20260506032758 | 35 | 297 | 13.0 | 18.2 | 0.00 | 0.48 | 0.46 | 56 | 1007.9 |
| 20260506032428 | 35 | 297 | 13.0 | 18.2 | 0.00 | 0.48 | 0.46 | 56 | 1007.9 |
| 20260506031428 | 35 | 305 | 13.0 | 20.0 | 0.00 | 0.48 | 0.46 | 57 | 1007.9 |
| 20260506030647 | 35 | 305 | 12.2 | 19.1 | 0.00 | 0.48 | 0.46 | 58 | 1007.9 |
| 20260506030428 | 35 | 305 | 12.2 | 19.1 | 0.00 | 0.48 | 0.46 | 58 | 1007.9 |
| 20260506025428 | 35 | 301 | 12.2 | 20.9 | 0.00 | 0.48 | 0.46 | 58 | 1007.7 |
| 20260506024431 | 35 | 288 | 14.8 | 24.3 | 0.00 | 0.48 | 0.46 | 58 | 1007.4 |
| 20260506023701 | 35 | 287 | 18.2 | 28.7 | 0.00 | 0.48 | 0.46 | 58 | 1007.2 |
| 20260506023428 | 35 | 287 | 18.2 | 28.7 | 0.00 | 0.48 | 0.46 | 58 | 1007.2 |
| 20260506021927 | 36 | 279 | 15.6 | 25.2 | 0.00 | 0.48 | 0.46 | 59 | 1007.0 |
| 20260506020927 | 36 | 282 | 17.4 | 24.3 | 0.00 | 0.48 | 0.46 | 60 | 1006.9 |
| 20260506020141 | 36 | 277 | 16.5 | 26.1 | 0.00 | 0.48 | 0.46 | 59 | 1007.0 |
| 20260506015927 | 36 | 277 | 16.5 | 26.1 | 0.00 | 0.48 | 0.46 | 59 | 1007.0 |
| 20260506014927 | 36 | 275 | 13.9 | 24.3 | 0.00 | 0.48 | 0.46 | 59 | 1006.9 |
| 20260506013927 | 37 | 286 | 11.3 | 23.5 | 0.00 | 0.48 | 0.46 | 58 | 1006.9 |
| 20260506013232 | 37 | 272 | 11.3 | 23.5 | 0.00 | 0.48 | 0.46 | 59 | 1006.8 |
| 20260506012927 | 37 | 272 | 11.3 | 23.5 | 0.00 | 0.48 | 0.46 | 59 | 1006.8 |
| 20260506012232 | 38 | 274 | 13.0 | 24.3 | 0.00 | 0.48 | 0.46 | 60 | 1006.8 |
| 20260506011927 | 38 | 274 | 13.0 | 24.3 | 0.00 | 0.48 | 0.46 | 60 | 1006.8 |
| 20260506011257 | 38 | 262 | 9.6 | 21.7 | 0.00 | 0.48 | 0.46 | 59 | 1006.8 |
| 20260506010927 | 38 | 262 | 9.6 | 21.7 | 0.00 | 0.48 | 0.46 | 59 | 1006.8 |
| 20260506010228 | 38 | 288 | 12.2 | 22.6 | 0.00 | 0.48 | 0.46 | 59 | 1006.8 |
| 20260506005927 | 38 | 288 | 12.2 | 22.6 | 0.00 | 0.48 | 0.46 | 59 | 1006.8 |
| 20260506004927 | 38 | 288 | 9.6 | 24.3 | 0.00 | 0.48 | 0.46 | 60 | 1006.7 |
| 20260506003927 | 38 | 276 | 11.3 | 20.9 | 0.00 | 0.48 | 0.46 | 62 | 1006.7 |
| 20260506002927 | 38 | 264 | 7.8 | 22.6 | 0.00 | 0.48 | 0.46 | 63 | 1006.7 |
| 20260506001927 | 38 | 259 | 14.8 | 21.7 | 0.00 | 0.48 | 0.46 | 65 | 1006.6 |
| 20260506000927 | 38 | 247 | 14.8 | 24.3 | 0.00 | 0.48 | 0.46 | 65 | 1006.6 |
| 20260505235927 | 38 | 246 | 13.9 | 24.3 | 0.00 | 0.48 | 0.46 | 63 | 1006.5 |
| 20260505234928 | 38 | 248 | 17.4 | 30.4 | 0.00 | 0.48 | 0.46 | 61 | 1006.4 |
| 20260505233929 | 39 | 252 | 20.9 | 30.4 | 0.00 | 0.48 | 0.46 | 59 | 1006.3 |
| 20260505232928 | 38 | 246 | 16.5 | 26.1 | 0.00 | 0.48 | 0.46 | 57 | 1006.4 |
| 20260505231927 | 38 | 259 | 21.7 | 31.3 | 0.00 | 0.48 | 0.46 | 53 | 1006.3 |
| 20260505230927 | 39 | 258 | 23.5 | 35.6 | 0.00 | 0.48 | 0.46 | 47 | 1006.0 |
| 20260505225927 | 39 | 253 | 20.9 | 34.8 | 0.00 | 0.48 | 0.46 | 50 | 1006.1 |
| 20260505224930 | 41 | 250 | 21.7 | 36.5 | 0.00 | 0.48 | 0.46 | 52 | 1006.0 |
| 20260505223926 | 40 | 255 | 21.7 | 43.4 | 0.00 | 0.48 | 0.46 | 53 | 1006.1 |
| 20260505222926 | 39 | 258 | 19.1 | 33.9 | 0.00 | 0.48 | 0.46 | 56 | 1006.2 |
| 20260505221926 | 38 | 252 | 18.2 | 37.4 | 0.00 | 0.48 | 0.46 | 67 | 1006.2 |
| 20260505220926 | 37 | 250 | 14.8 | 28.7 | 0.00 | 0.48 | 0.46 | 76 | 1006.4 |
| 20260505215928 | 38 | 258 | 21.7 | 33.9 | 0.00 | 0.48 | 0.46 | 78 | 1006.4 |
| 20260505214927 | 37 | 258 | 17.4 | 37.4 | 0.00 | 0.48 | 0.46 | 79 | 1006.5 |
| 20260505213927 | 36 | 260 | 17.4 | 30.4 | 0.00 | 0.48 | 0.46 | 79 | 1006.6 |
| 20260505212928 | 36 | 257 | 19.1 | 33.9 | 0.00 | 0.48 | 0.46 | 79 | 1006.6 |
| 20260505211927 | 36 | 247 | 18.2 | 31.3 | 0.00 | 0.48 | 0.46 | 79 | 1006.8 |
| 20260505210926 | 36 | 271 | 18.2 | 28.7 | 0.00 | 0.48 | 0.46 | 79 | 1006.8 |
| 20260505205928 | 36 | 256 | 17.4 | 26.9 | 0.00 | 0.48 | 0.46 | 79 | 1007.0 |
| 20260505204927 | 36 | 248 | 18.2 | 28.7 | 0.00 | 0.48 | 0.46 | 79 | 1006.8 |
| 20260505203927 | 36 | 251 | 16.5 | 28.7 | 0.00 | 0.48 | 0.46 | 79 | 1007.0 |
| 20260505202928 | 37 | 256 | 20.0 | 32.2 | 0.00 | 0.48 | 0.46 | 79 | 1006.9 |
| 20260505201926 | 37 | 248 | 20.9 | 28.7 | 0.00 | 0.48 | 0.46 | 79 | 1006.9 |
| 20260505200926 | 37 | 252 | 16.5 | 30.4 | 0.00 | 0.48 | 0.46 | 79 | 1007.0 |
| 20260505195926 | 37 | 258 | 19.1 | 29.5 | 0.00 | 0.48 | 0.46 | 79 | 1007.0 |
| 20260505194926 | 37 | 254 | 20.0 | 32.2 | 0.00 | 0.48 | 0.46 | 79 | 1007.1 |
| 20260505193927 | 37 | 257 | 19.1 | 31.3 | 0.00 | 0.48 | 0.46 | 79 | 1007.1 |
| 20260505192927 | 36 | 249 | 17.4 | 31.3 | 0.00 | 0.48 | 0.46 | 79 | 1006.9 |
| 20260505191927 | 36 | 262 | 20.0 | 29.5 | 0.00 | 0.48 | 0.46 | 79 | 1007.2 |
| 20260505190926 | 37 | 255 | 19.1 | 34.8 | 0.00 | 0.48 | 0.46 | 79 | 1007.2 |
| 20260505185926 | 36 | 251 | 12.2 | 33.9 | 0.00 | 0.48 | 0.46 | 79 | 1007.3 |
| 20260505184926 | 37 | 254 | 17.4 | 32.2 | 0.00 | 0.48 | 0.46 | 79 | 1007.3 |
| 20260505183926 | 36 | 259 | 15.6 | 26.1 | 0.00 | 0.48 | 0.46 | 79 | 1007.3 |
| 20260505182926 | 36 | 261 | 16.5 | 27.8 | 0.00 | 0.48 | 0.46 | 79 | 1007.3 |
| 20260505181927 | 37 | 250 | 16.5 | 28.7 | 0.00 | 0.48 | 0.46 | 79 | 1007.4 |
| 20260505180927 | 37 | 254 | 17.4 | 26.1 | 0.00 | 0.48 | 0.46 | 79 | 1007.5 |
| 20260505175927 | 36 | 251 | 17.4 | 26.1 | 0.00 | 0.48 | 0.46 | 79 | 1007.4 |
| 20260505174926 | 37 | 259 | 15.6 | 26.1 | 0.00 | 0.48 | 0.46 | 79 | 1007.5 |
| 20260505173927 | 36 | 248 | 13.0 | 23.5 | 0.00 | 0.48 | 0.46 | 79 | 1007.4 |
| 20260505172928 | 37 | 260 | 15.6 | 23.5 | 0.00 | 0.48 | 0.46 | 79 | 1007.6 |
| 20260505171929 | 36 | 249 | 13.9 | 25.2 | 0.00 | 0.48 | 0.46 | 79 | 1007.5 |
| 20260505170927 | 36 | 238 | 14.8 | 27.8 | 0.00 | 0.48 | 0.46 | 79 | 1007.4 |
| 20260505165926 | 36 | 255 | 17.4 | 30.4 | 0.00 | 0.48 | 0.46 | 79 | 1007.5 |
| 20260505164926 | 36 | 259 | 10.4 | 25.2 | 0.00 | 0.48 | 0.46 | 79 | 1007.7 |
| 20260505163926 | 36 | 263 | 18.2 | 28.7 | 0.00 | 0.48 | 0.46 | 79 | 1007.4 |
| 20260505162926 | 36 | 251 | 15.6 | 26.1 | 0.00 | 0.48 | 0.46 | 79 | 1007.3 |
| 20260505161926 | 36 | 250 | 17.4 | 28.7 | 0.00 | 0.48 | 0.46 | 79 | 1007.1 |
| 20260505160926 | 36 | 262 | 17.4 | 28.7 | 0.02 | 0.48 | 0.46 | 79 | 1007.0 |
| 20260505152927 | 37 | 249 | 15.6 | 25.2 | 0.19 | 0.48 | 0.46 | 79 | 1006.9 |
| 20260505152256 | 37 | 245 | 19.1 | 26.1 | 0.24 | 0.48 | 0.46 | 79 | 1007.1 |
| 20260505151926 | 37 | 245 | 19.1 | 26.1 | 0.24 | 0.48 | 0.46 | 79 | 1007.1 |
| 20260505150927 | 37 | 243 | 14.8 | 23.5 | 0.23 | 0.46 | 0.44 | 79 | 1007.0 |
| 20260505123925 | 37 | 250 | 7.0 | 11.3 | 0.02 | 0.09 | 0.07 | 78 | 1006.7 |
| 20260505122925 | 37 | 250 | 7.8 | 12.2 | 0.02 | 0.09 | 0.07 | 78 | 1006.6 |
| 20260505121927 | 36 | 257 | 8.7 | 13.0 | 0.01 | 0.08 | 0.06 | 78 | 1006.6 |
| 20260505120926 | 36 | 256 | 7.8 | 15.6 | 0.01 | 0.08 | 0.06 | 78 | 1006.7 |
| 20260505115928 | 36 | 254 | 9.6 | 15.6 | 0.00 | 0.07 | 0.05 | 78 | 1006.6 |
| 20260505114925 | 36 | 243 | 9.6 | 14.8 | 0.00 | 0.07 | 0.05 | 78 | 1006.7 |
| 20260505113926 | 36 | 258 | 9.6 | 15.6 | 0.01 | 0.07 | 0.05 | 78 | 1006.7 |
| 20260505112925 | 36 | 260 | 9.6 | 13.9 | 0.01 | 0.07 | 0.05 | 78 | 1006.9 |
| 20260505111926 | 37 | 250 | 8.7 | 16.5 | 0.01 | 0.07 | 0.05 | 78 | 1006.8 |
| 20260505110929 | 36 | 253 | 10.4 | 17.4 | 0.02 | 0.07 | 0.05 | 78 | 1006.9 |
| 20260505101817 | 37 | 256 | 13.0 | 21.7 | 0.02 | 0.05 | 0.03 | 78 | 1007.3 |
| 20260505100925 | 37 | 256 | 13.0 | 21.7 | 0.02 | 0.05 | 0.03 | 78 | 1007.3 |